{"data":{"norad_id":64053,"intl_designator":"2025-103F","name":"TIANYI F","alt_names":[],"object_type":"PAYLOAD","status":"ACTIVE","operator":null,"country":"PRC","launch_date":"2025-05-17","launch_site_code":"JSC","launch_vehicle":null,"mission":null,"orbit_class":"UNKNOWN","rcs_meters":null,"size_class":null,"mass_kg":null,"dimensions":null,"purposes":[],"wikipedia_slug":null,"has_3d_model":false,"image_url":null,"decayed_at":null,"tle_current":{"epoch":"2026-05-25T04:03:57.854304Z","epoch_age_seconds":70526,"freshness":"FRESH","line1":"1 64053U 25103F   26145.16941961  .00003093  00000+0  15179-3 0  9994","line2":"2 64053  97.3811 217.1842 0001793 222.2576 137.8521 15.18824929 56557","mean_motion":15.18824929,"eccentricity":0.0001793,"inclination_deg":97.3811,"raan_deg":217.1842,"arg_perigee_deg":222.2576,"mean_anomaly_deg":137.8521,"bstar":0.00015179,"rev_number":5655,"period_min":94.810137265004,"perigee_km":508.15584549507,"apogee_km":510.6257129567,"semimajor_km":6887.5277792259,"source":"CELESTRAK","updated_at":"2026-05-25T13:38:04.197383Z"}}}